Location: Niedergestelen
(46.3129°N, 7.7822°E)
Time: 14:46:04
(UTC+00:00)

N. Korean satellite - Pass Details

Date: 20 September 2021
Orbit: 450 x 495 km, 97.3° (Epoch: 16 October)

Event Time Altitude Azimuth Distance (km) Brightness Sun altitude
Rises 04:16:42 0° 21° (NNE) 2,506 10.7 -10.5°
Reaches altitude 10° 04:18:54 10° 32° (NNE) 1,633 9.9 -10.1°
Maximum altitude 04:22:04 31° 97° (E) 847 8.6 -9.6°
Drops below altitude 10° 04:25:15 10° 161° (SSE) 1,644 9.4 -9.1°
Sets 04:27:28 0° 172° (S) 2,526 10.2 -8.7°
